Location: Dealu Mare
(46.0500°N, 22.8167°E)
Time: 09:41:45
(UTC+00:00)

Cosmos 540 Rocket - Pass Details

Date: 15 January 2026
Orbit: 736 x 747 km, 74.1° (Epoch: 10 February)

Event Time Altitude Azimuth Distance (km) Brightness Sun altitude
Exits shadow 05:12:57 - 337° (NNW) 3,098 6.2 -9.3°
Reaches altitude 10° 05:15:07 10° 337° (NNW) 2,251 5.5 -8.9°
Maximum altitude 05:20:13 84° 251° (WSW) 748 3.4 -8.1°
Drops below altitude 10° 05:25:17 10° 163° (SSE) 2,238 6.5 -7.3°
Sets 05:27:37 0° 163° (SSE) 3,158 7.3 -6.9°
